User: anonymous   Login
Location: Unspecified
(0.0000°N, 0.0000°E)
Time: 22:25:28
(UTC+00:00)
Language:

OV2-5 - Orbit

View from above orbital plane
View from above orbital plane
View from above satellite
View from above satellite

Ground track
Ground track

The orbit is defined by the following mean orbital elements,

1 03428U          26108.59113134 +.00000000 +00000-0 +00000-0 0 00004
2 03428   1.8828  49.0204 0080764 284.3244 144.5944  1.01561428    06
Epoch (UTC): 18 April 2026 14:11:13
Eccentricity: 0.0080764
inclination: 1.8828°
perigee height: 35091 km
apogee height: 35767 km
right ascension of ascending node: 49.0204°
argument of perigee: 284.3244°
revolutions per day: 1.01561428
mean anomaly at epoch: 144.5944°

The dashed part of the orbit path shows where the satellite is in the earth's shadow,  

DLR